Page, AZ

2:38 PM MDT on April 25, 2017 (GMT -0600)
Page Municipal

Weather History for KPGA - February, 2013

Change the Weather History Date:

Monday, February 25, 2013

  Actual Average Record
Temperature  
Mean Temperature 36 °F -  
Max Temperature 48 °F 53 °F 71 °F (1989)
Min Temperature 25 °F 33 °F 23 °F (1960)
Degree Days  
Heating Degree Days 28    
Moisture  
Dew Point 7 °F    
Average Humidity 28    
Maximum Humidity 47    
Minimum Humidity 8    
Precipitation  
Precipitation 0.00 in - - ()
Sea Level Pressure  
Sea Level Pressure 30.08 in    
Wind  
Wind Speed 4 mph (NNE)    
Max Wind Speed 7 mph    
Max Gust Speed -    
Visibility 10 miles    
Events      
Averages and records for this station are not official NWS values.
T = Trace of Precipitation, MM = Missing Value Source: NWS Daily Summary

Daily Weather History Graph

Daily Weather History Graph

Search for Another Location

Airport or City:

Trip Planner

Search our weather history database for the weather conditions in past years. The results will help you decide how hot, cold, wet, or windy it might be!

Date:

Astronomy

Feb. 25, 2013 Rise Set
Actual Time 7:01 AM MST 6:16 PM MST
Civil Twilight 6:35 AM MST 6:42 PM MST
Nautical Twilight 6:05 AM MST 7:12 PM MST
Astronomical Twilight 5:35 AM MST 7:42 PM MST
Moon 6:31 PM MST 6:34 AM MST
Length of Visible Light 12h 07m
Length of Day
11h 14m
Full, 100% of the Moon is Illuminated
Feb 25
Full
Feb 25
Full
Mar 4
Last Quarter
Mar 11
New
Mar 19
First Quarter

Hourly Weather History & Observations

Time (MST) Temp. Windchill Dew Point Humidity Pressure Visibility Wind Dir Wind Speed Gust Speed Precip Events Conditions
12:53 AM 34.0 °F 28.8 °F 8.1 °F 34% 30.12 in 10.0 mi NW 5.8 mph - N/A   Clear
1:53 AM 33.1 °F 28.7 °F 7.0 °F 34% 30.14 in 10.0 mi Variable 4.6 mph - N/A   Clear
2:53 AM 32.0 °F 25.6 °F 8.1 °F 37% 30.13 in 10.0 mi WNW 6.9 mph - N/A   Clear
3:53 AM 30.0 °F - 9.0 °F 41% 30.15 in 10.0 mi Calm Calm - N/A   Clear
4:53 AM 28.0 °F - 8.1 °F 43% 30.16 in 10.0 mi Calm Calm - N/A   Clear
5:53 AM 26.1 °F - 8.1 °F 47% 30.19 in 10.0 mi Calm Calm - N/A   Clear
6:53 AM 26.1 °F 18.4 °F 8.1 °F 47% 30.21 in 10.0 mi SE 6.9 mph - N/A   Clear
7:53 AM 30.0 °F 24.1 °F 8.1 °F 40% 30.22 in 10.0 mi SE 5.8 mph - N/A   Clear
8:53 AM 33.1 °F - 9.0 °F 37% 30.22 in 10.0 mi Calm Calm - N/A   Clear
9:53 AM 36.0 °F - 8.1 °F 31% 30.20 in 10.0 mi Calm Calm - N/A   Clear
10:53 AM 37.9 °F 34.4 °F 8.1 °F 29% 30.19 in 10.0 mi Variable 4.6 mph - N/A   Clear
11:53 AM 39.9 °F 35.8 °F 7.0 °F 26% 30.16 in 10.0 mi East 5.8 mph - N/A   Clear
12:53 PM 42.1 °F 40.2 °F 7.0 °F 24% 30.11 in 10.0 mi NE 3.5 mph - N/A   Clear
1:53 PM 45.0 °F 41.2 °F 8.1 °F 22% 30.06 in 10.0 mi North 6.9 mph - N/A   Clear
2:53 PM 46.9 °F - 8.1 °F 21% 30.03 in 10.0 mi NE 5.8 mph - N/A   Clear
3:53 PM 48.0 °F - 6.1 °F 18% 30.00 in 10.0 mi NE 5.8 mph - N/A   Clear
4:53 PM 48.0 °F - 5.0 °F 17% 29.99 in 10.0 mi Calm Calm - N/A   Clear
5:53 PM 46.0 °F 43.9 °F 6.1 °F 20% 29.98 in 10.0 mi NNE 4.6 mph - N/A   Clear
6:53 PM 43.0 °F 41.3 °F 5.0 °F 21% 29.97 in 10.0 mi ENE 3.5 mph - N/A   Clear
7:53 PM 39.9 °F - 6.1 °F 25% 29.96 in 10.0 mi Calm Calm - N/A   Clear
8:53 PM 37.9 °F - 6.1 °F 27% 29.95 in 10.0 mi Calm Calm - N/A   Clear
9:53 PM 36.0 °F - 7.0 °F 30% 29.94 in 5.0 mi Calm Calm - N/A   Haze
10:53 PM 36.0 °F 33.3 °F 7.0 °F 30% 29.94 in 10.0 mi West 3.5 mph - N/A   Clear
11:53 PM 39.9 °F 35.1 °F 5.0 °F 23% 29.94 in 10.0 mi West 6.9 mph - N/A   Clear